#timestamp,LO_Frequency,Hit,StdDev 
1588888815.4,286047000.2,N
1588888835.2,286046999.7,N
1588888855.1,286047000.0,N
1588888856.0,286047000.0,N
1588888875.8,286046999.3,N
1588888895.6,286046998.9,Y
1588888915.5,286046999.1,P
1588888935.3,286046999.3,N
1588888955.2,286046996.7,P
1588888975.9,286046995.3,Y
1588888995.7,286046998.8,P
1588889015.6,286046998.3,P
1588889035.4,286046998.3,P
1588889055.3,286046999.2,Y
1588889075.1,286047001.0,P
1588889076.0,286047001.0,N
1588889095.8,286047000.5,N
1588889115.7,286047002.6,N
1588889135.5,286047002.5,N
1588889155.3,286047001.9,N
1588889175.2,286047002.7,N
1588889195.0,286047001.8,N
1588889195.9,286047001.8,N
1588889215.8,286047001.8,N
1588889235.6,286047001.6,N
1588889255.4,286047001.6,N
1588889275.3,286047004.4,Y
1588889295.1,286047002.5,P
1588889315.9,286047002.6,P
1588889335.7,286047002.1,P
1588889355.5,286047002.3,Y
1588889375.4,286046998.6,P
1588889395.2,286047000.8,N
1588889415.0,286046999.0,N
1588889415.9,286046999.0,N
1588889435.8,286047001.1,N
1588889455.6,286047001.2,N
1588889475.5,286047000.7,N
1588889495.3,286047000.8,N
1588889515.1,286047001.0,N
1588889535.9,286047000.6,N
1588889555.7,286047001.2,N
1588889575.5,286047001.2,N
1588889595.4,286047001.1,N
1588889615.2,286046999.3,N
1588889635.1,286046998.9,N
1588889636.0,286046998.9,N
1588889655.8,286046998.3,N
1588889675.6,286046996.5,Y
1588889695.5,286046998.4,P
1588889715.3,286046998.8,N
1588889735.2,286046999.0,N
1588889755.9,286046998.9,N
1588889775.7,286046997.7,Y
1588889795.6,286046998.9,P
1588889815.4,286046998.7,P
1588889835.2,286046999.1,P
1588889855.1,286046998.8,Y
1588889856.0,286046998.8,P
1588889875.8,286047002.6,P
1588889895.7,286047002.1,N
1588889915.5,286047001.9,N
1588889935.3,286047002.1,N
1588889955.2,286047002.6,N
1588889975.0,286047002.2,N
1588889975.9,286047002.2,N
1588889995.8,286046999.7,N
1588890015.6,286047000.9,N
1588890035.4,286047000.5,N
1588890055.3,286047000.4,N
1588890075.1,286047000.5,N
1588890095.8,286046998.4,N
1588890115.7,286047000.8,N
1588890135.5,286047000.8,N
1588890155.4,286047000.3,N
1588890175.2,286046998.1,N
1588890195.0,286046998.5,N
1588890195.9,286046998.5,N
1588890215.8,286046998.2,N
1588890235.6,286047001.1,N
1588890255.5,286047000.9,N
1588890275.3,286047000.9,N
1588890295.1,286047001.1,N
1588890315.9,286047000.4,N
1588890335.7,286047000.4,N
1588890355.5,286047002.4,N
1588890375.4,286047000.0,N
1588890395.2,286047002.1,N
1588890415.1,286046999.8,N
1588890416.0,286046999.8,N
1588890435.8,286047002.5,N
1588890455.6,286047001.9,N
1588890475.5,286047002.8,N
1588890495.3,286047002.8,N
1588890515.1,286047002.3,N
1588890535.9,286047002.0,N
1588890555.7,286047002.1,N
1588890575.6,286047002.2,N
1588890595.4,286047002.7,N
1588890615.2,286047002.7,N
1588890635.1,286047000.0,N
1588890636.0,286047000.0,N
1588890655.8,286047002.4,N
1588890675.7,286046999.8,N
1588890695.5,286047002.1,N
1588890715.3,286046999.7,N
1588890735.2,286047000.3,N
1588890755.0,286047002.7,N
1588890755.9,286047002.7,N
1588890775.7,286047002.6,N
1588890795.6,286047002.4,N
1588890815.4,286047002.6,N
1588890835.3,286047002.5,N
1588890855.1,286047001.6,N
1588890856.0,286047001.6,N
1588890875.8,286046999.7,N
1588890895.7,286047002.2,N
1588890915.5,286047001.3,N
1588890935.4,286047003.9,Y
1588890955.2,286046999.9,P
1588890975.0,286047000.4,N
1588890975.9,286047000.4,N
1588890995.8,286047000.4,N
1588891015.6,286047000.7,N
1588891035.4,286047001.2,N
1588891055.3,286046999.0,N
1588891075.1,286047000.6,N
1588891095.9,286047000.5,N
1588891115.7,286047000.9,N
1588891135.5,286047000.5,N
1588891155.4,286046998.6,N
1588891175.2,286047000.8,N
1588891195.0,286046998.5,N
1588891195.9,286046998.5,N
1588891215.8,286047000.5,N
1588891235.6,286047000.6,N
1588891255.5,286047000.2,N
1588891275.3,286047000.0,N
1588891295.1,286046999.9,N
1588891315.9,286047002.3,N
1588891335.7,286046999.9,N
1588891355.5,286047000.9,N
1588891375.4,286047001.1,N
1588891395.2,286046998.2,N
1588891415.1,286047000.7,N
1588891416.0,286047000.7,N
1588891435.8,286047001.1,N
1588891455.6,286047000.3,N
1588891475.5,286047001.0,N
1588891495.3,286047001.1,N
1588891515.2,286046998.9,N
1588891535.9,286046998.3,N
1588891555.7,286047000.8,N
1588891575.6,286046999.2,N
1588891595.4,286046997.2,N
1588891615.2,286046997.4,N
1588891635.1,286046996.6,N
1588891636.0,286046996.6,N
1588891655.8,286046999.0,N
1588891675.7,286046998.3,N
1588891695.5,286046998.2,N
1588891715.3,286047000.5,N
1588891735.2,286047002.2,N
1588891755.0,286047004.3,N
1588891755.9,286047004.3,N
1588891775.8,286047001.3,N
1588891795.6,286047002.4,N
1588891815.4,286047001.9,N
1588891835.3,286047002.6,N
1588891855.1,286047000.1,N
1588891875.8,286047000.7,N
1588891895.7,286047000.8,N
1588891915.5,286047001.1,N
1588891935.4,286047000.3,N
1588891955.2,286047000.4,N
1588891975.0,286047001.0,N
1588891975.9,286047001.0,N
1588891995.8,286047002.5,N
1588892015.6,286047002.7,N
1588892035.5,286047002.3,N
1588892055.3,286047000.5,N
1588892075.1,286047001.2,N
1588892095.9,286047001.1,N
1588892115.7,286047000.9,N
1588892135.5,286046999.7,N
1588892155.4,286047000.4,N
1588892175.2,286047000.8,N
1588892195.1,286046999.8,N
1588892196.0,286046999.8,N
1588892215.8,286046998.1,N
1588892235.6,286046999.9,N
1588892255.5,286047002.6,N
1588892275.3,286047002.8,N
1588892295.2,286047001.6,N
1588892315.9,286047001.8,N
1588892335.7,286047001.8,N
1588892355.6,286047002.1,N
1588892375.4,286047002.0,N
1588892395.2,286047002.6,N
